Location: Donzy-le-Pr�
(47.3659°N, 3.1107°E)
Time: 17:00:19
(UTC+00:00)

USA 308 - Pass Details

Date: 03 March 2021
Orbit: 568 x 576 km, 54.0° (Epoch: 16 April)

Event Time Altitude Azimuth Distance (km) Brightness Sun altitude
Rises 18:25:48 0° 274° (W) 2,776 8.8 -9.3°
Reaches altitude 10° 18:28:12 10° 283° (WNW) 1,877 7.0 -9.7°
Maximum altitude 18:32:09 36° 350° (N) 920 4.1 -10.3°
Enters shadow 18:36:00 11° 58° (ENE) 1,838 5.0 -11.0°
